Location: Austin
(30.3000°N, 97.7500°W)
Time: 10:35:34
(UTC-05:00)

Meteor 1-14 Rocket - Pass Details

Date: 05 September 2024
Orbit: 832 x 918 km, 81.3° (Epoch: 10 September)

Event Time Altitude Azimuth Distance (km) Brightness Sun altitude
Exits shadow 22:02:27 32° 208° (SSW) 1,411 5.3 -28.5°
Maximum altitude 22:05:00 64° 278° (W) 928 4.5 -28.9°
Drops below altitude 10° 22:10:30 10° 0° (N) 2,447 6.9 -30.0°
Sets 22:12:55 0° 4° (N) 3,381 7.6 -30.4°
